Regional Weather Roundup
Issued by NWS Midland/Odessa, TX

Skip options and go directly to product.
Home | Oldest Version | Previous Version | Current Version | All | Text Only | Save Text | Print | Product List | Glossary Off

Skip product version selection by date and time.   

967
ASUS44 KMAF 302210
RWRMAF
MIDLAND AREA WEATHER ROUNDUP
NATIONAL WEATHER SERVICE MIDLAND TX
500 PM CDT TUE AUG 30 2016

...IN SOUTHWEST TEXAS AND SOUTHEAST NEW MEXICO...

CITY           SKY/WX    TMP DP  RH WIND       PRES   REMARKS
ALPINE         PTSUNNY   72  63  73 E6        30.21F
ANDREWS        FAIR      73  66  79 N7        30.12F
ARTESIA        CLOUDY    72  70  94 N8        30.18S
BIG SPRING     CLOUDY    83  64  53 E10       30.08F
CARLSBAD       CLOUDY    73  66  78 CALM      30.14S
DRYDEN           N/A     85  68  56 NE9       30.00F
FORT STOCKTON  PTSUNNY   83  64  52 E12       30.07F
GUAD PASS      NOT AVBL
HOBBS          LGT RAIN  68  68 100 NE8       30.17R
MARFA          CLOUDY   N/A N/A N/A NE12      30.19F
MIDLAND AIRPK  LGT RAIN  85  63  48 SE16G22   30.08S
MIDLAND INTL   CLOUDY    83  64  52 SE12      30.07F
ODESSA         PTSUNNY   83  62  49 E9        30.09F
PECOS          RAIN      69  67  93 NW9       30.09S
PRESIDIO       TSTM      82  70  68 E15G23    30.02F
SEMINOLE       CLOUDY    70  63  78 CALM      30.15S
SNYDER           N/A     85  63  48 E12       30.07F
WINK           PTSUNNY   82  61  48 S12       30.07S
$$
...OTHER STATIONS IN TEXAS...

CITY           SKY/WX    TMP DP  RH WIND       PRES   REMARKS
ABILENE        MOSUNNY   88  64  44 E12       30.03F
AMARILLO       LGT RAIN  69  66  90 N8        30.23F
AUSTIN         PTSUNNY   90  72  55 NE12      29.92F
BROWNSVILLE    CLOUDY    88  74  63 NE14      29.83S
CORPUS CHRISTI CLOUDY    82  75  79 NE12      29.89F
DALLAS FTW     PTSUNNY   92  70  48 NE14      29.95F
DEL RIO        CLOUDY    79  73  82 E9        29.96S
EL PASO        CLOUDY    75  65  70 NE5       30.12F
HOUSTON INT    CLOUDY    89  72  56 E12       29.89F
LUBBOCK        PTSUNNY   79  65  62 NE14G21   30.13F
SAN ANGELO     CLOUDY    84  66  54 E13       30.01F
SAN ANTONIO    CLOUDY    84  73  69 NE7       29.94F
WACO           MOSUNNY   91  73  55 E14       29.94F
WICHITA FALLS  NOT AVBL
$$
...OTHER LOCATIONS IN NEW MEXICO...

CITY           SKY/WX    TMP DP  RH WIND       PRES   REMARKS
ALAMAGORDO     PTSUNNY   77  55  47 SW6       30.15F
ALBUQUERQUE    MOSUNNY   80  50  34 E13G18    30.23F
CANNON AFB     PTSUNNY   69  68  95 NE14      30.24R
CLOVIS         CLOUDY    70  63  78 NE13      30.25R
HOLLOMAN AFB   CLOUDY    80  56  43 S8        30.12F
ROSWELL        PTSUNNY   74  60  61 N3        30.18F
RUIDOSO          N/A     61  55  82 E5        30.37F
SANTA FE       CLOUDY    76  48  37 SE14G20   30.29F
TRUTH OR CONSE PTSUNNY   83  50  31 E12       30.14F
TUCUMCARI      HVY RAIN  66  65  96 E5        30.24S FOG
$$

USA.gov is the U.S. government's official web portal to all federal, state and local government web resources and services.